Preview of NWS' New Version of Forecast
This preview is not operational and should not be used for support decisions.

Regional Weather Roundup (RWR)

Issued by National Weather Service (NWS)

                            
681 
ASUS45 KSLC 200510
RWRUT 

UTAH REGIONAL WEATHER ROUNDUP
NATIONAL WEATHER SERVICE SALT LAKE CITY UT
1100 PM MDT TUE JUN 19 2018

UTZ001>011-023>025-200600-

NORTHERN UTAH
  
CITY           SKY/WX    TMP DP  RH WIND       PRES   REMARKS
BRIGHAM CITY   CLOUDY    71  39  30 CALM      30.15S                  
HILL AFB       CLEAR     63  39  41 E8        30.17R                  
LOGAN          PTCLDY    62  44  51 CALM      30.17R                  
OGDEN          PTCLDY    64  40  41 S5        30.14S                  
SALT LAKE CITY PTCLDY    68  40  35 SE6       30.14R                  
TOOELE VALLEY  CLEAR     55  41  58 S8        30.16S                  
WENDOVER       CLEAR     69  43  38 N10       30.16R                  
HEBER CITY       N/A     54  37  54 CALM      30.20S                  
WEST JORDAN    CLEAR     62  40  44 CALM      30.17S                  

$$

UTZ011>015-024>027-200600-

CENTRAL/NORTHEAST UTAH
  
CITY           SKY/WX    TMP DP  RH WIND       PRES   REMARKS
PROVO AIRPORT  CLEAR     69  41  36 NW14      30.16R                  
MOAB/CANYONLAN CLEAR     75  35  23 NW14      30.03R                  
DELTA          CLEAR     68  37  32 NE8       30.14R                  
PRICE          CLEAR     65  38  36 NW8       30.18R                  
ROOSEVELT      CLEAR     64  34  32 W10       30.14R                  
VERNAL         CLEAR     65  36  34 NE8       30.14R                  

$$

UTZ013>016-019>022-027-200600-

SOUTHERN UTAH
  
CITY           SKY/WX    TMP DP  RH WIND       PRES   REMARKS
BRYCE CANYON   CLEAR     53  23  31 CALM      30.28R                  
CEDAR CITY     CLEAR     65  30  27 NE3       30.13R                  
MILFORD        CLEAR     69  31  24 N14       30.10R                  
ST GEORGE      CLEAR     87  28  12 N5        29.93R                  
HANKSVILLE     CLEAR     77  28  16 N14       30.07R                  
BLANDING         N/A     63  19  18 N12       30.18S                  

$$

REGIONAL REPORTS     COLORADO/ARIZONA
  
CITY           SKY/WX    TMP DP  RH WIND       PRES   REMARKS
CRAIG, CO      MOCLDY    57  43  59 SW3       30.20R                  
GRAND JUNCTION CLEAR     69  34  27 NW5       30.05R                  
RIFLE, CO      CLEAR     68  32  26 CALM      30.11R                  
MONTROSE, CO   CLEAR     63  26  24 SE6       30.12R                  
CORTEZ, CO     CLEAR     59  35  40 E9        30.11R                  
COLORADO CITY    N/A     68  27  21 CALM      30.11S                  
PAGE, AZ       CLEAR     85  24  11 W5        30.00R                  
GRAND CANYON   CLEAR     53  27  36 CALM      30.21R                  
KINGMAN, AZ    CLEAR     75  18  11 S7        29.99R                  
FLAGSTAFF, AZ  CLEAR     58  26  29 CALM      30.24R                  

$$

REGIONAL REPORTS    NEVADA/IDAHO/WYOMING
  
CITY           SKY/WX    TMP DP  RH WIND       PRES   REMARKS
LAS VEGAS, NV  CLEAR     93  28  10 SW6       29.86R                  
ELY, NY        CLEAR     63  34  33 N12       30.24R                  
ELKO, NV       NOT AVBL                                               
POCATELLO, ID  CLOUDY    61  52  72 NE7       30.19R                  
BURLEY, ID     CLEAR     58  48  69 CALM      30.16R                  
FORT BRIDGER,    N/A     52  40  62 W6        30.31R                  
EVANSTON, WY   CLEAR     53  39  59 CALM      30.29R                  
ROCK SPRINGS,  CLEAR     52  41  66 W7        30.25R                  
KEMMERER, WY   CLEAR     46  37  71 N7        30.30R                  

$$